Temp
44 43 44 44 44 44 44 44 44 45 45 44 44 45 46 46 47 50 52 53 51 49 49 47 47 49 48 48 46 44 44 43 40 45 36 35 34 35 35 35 35 35 35
43 43 43 44 43 43 44 44 44 44 44 44 43 43 44 44 45 45 47 49 49 49 49 48 48 47 46 47 46 42 43 43 41 40 37 30 32 34 33 32 33 34 33
42 42 43 43 42 42 42 42 42 42 41 41 40 40 42 43 46 47 48 48 48 48 49 46 46 45 43 44 44 42 41 41 40 39 39 30 30 31 30 31 31 32 32
38 38 38 39 39 39 39 39 39 39 38 38 38 38 38 39 42 43 42 45 46 46 47 46 45 43 43 43 42 42 40 38 37 36 32 28 29 29 30 28 28 30 29
36 36 36 36 36 35 35 34 34 35 35 35 35 35 35 36 38 40 39 41 42 42 42 41 41 41 40 43 41 40 38 36 34 34 33 28 27 27 27 28 28 27 28
34 33 33 33 33 32 33 33 33 33 33 34 34 33 33 34 38 40 41 39 37 38 38 38 37 35 37 39 41 42 39 35 34 34 34 30 31 29 29 27 27 25 23
31 31 31 31 31 32 32 32 32 32 32 32 31 31 31 32 38 39 39 37 36 36 36 35 35 34 34 35 37 40 40 40 40 36 34 31 30 29 29 27 27 27 26
30 29 29 30 29 29 29 29 30 30 30 30 30 30 29 30 37 39 38 36 35 35 35 35 34 35 34 33 33 33 34 35 36 36 33 32 32 31 30 30 28 28 27
31 30 30 29 28 28 27 31 31 31 27 29 29 29 28 30 37 38 37 34 33 34 34 33 34 33 35 36 33 32 31 30 34 35 34 34 34 33 32 30 27 27 24
29 29 28 27 25 25 27 29 29 26 30 30 29 29 29 31 35 37 36 33 33 33 31 31 32 33 35 36 33 31 29 29 30 31 31 33 33 33 34 31 29 27 24
25 25 24 25 23 23 24 24 26 25 28 24 28 28 26 30 30 35 36 33 33 31 30 29 30 34 35 35 35 31 30 31 32 31 30 30 30 31 30 30 30 29 25
25 27 27 22 27 25 19 22 26 30 29 30 29 28 27 29 31 33 35 36 35 30 29 29 30 33 34 35 33 33 34 31 30 29 28 27 27 28 28 29 29 28 28
19 23 27 28 29 30 28 26 24 23 28 27 27 27 26 24 24 33 34 35 33 30 30 30 32 33 34 34 34 34 31 30 28 27 27 26 27 27 27 24 23 22 21
14 19 25 27 29 30 30 28 25 19 19 23 21 22 21 21 22 25 31 32 32 30 30 29 31 32 33 33 32 31 30 30 29 27 27 26 26 25 23 22 20 20 17
13 18 21 25 29 29 29 28 27 23 25 23 23 20 19 16 20 31 30 28 25 28 24 26 29 30 30 30 30 30 30 29 28 27 26 24 24 23 22 21 19 18 16
11 16 18 20 23 27 27 26 31 33 33 34 34 29 20 29 33 33 33 33 32 32 26 26 25 27 27 27 27 27 27 27 26 26 24 23 23 22 19 18 17 15 13
6 11 14 18 24 25 23 16 18 21 30 30 31 33 32 32 32 33 34 33 33 30 23 26 26 26 25 25 24 23 21 20 21 22 21 21 20 19 17 15 14 13 11
4 9 12 17 22 24 21 15 16 14 15 20 25 27 31 33 33 34 33 29 22 22 21 20 19 20 19 19 19 19 18 17 17 16 15 15 15 13 11 12 12 9 8
6 10 13 16 20 21 19 16 16 17 14 18 20 22 21 26 26 26 25 18 16 14 14 12 13 13 12 12 12 12 11 9 9 9 8 9 9 8 6 8 9 8 6
6 9 14 16 18 18 16 17 16 14 14 17 17 16 16 16 13 11 11 12 11 10 9 7 7 6 6 6 6 6 6 6 5 5 3 2 2 4 2 0 1 -0 -1
8 10 11 15 14 15 18 19 17 15 15 14 15 19 19 11 8 7 5 4 4 4 4 3 2 1 0 1 2 2 -0 -1 -4 -3 -5 -8 -9 -8 -10 -6 -13 -15 -14
8 9 10 11 13 16 16 17 15 14 14 12 10 11 14 8 6 4 2 -0 -2 -2 -3 -2 -4 -5 -6 -5 -7 -5 -7 -10 -15 -18 -18 -19 -20 -21 -19 -16 -15 -16 -18
8 9 8 9 13 14 13 13 12 11 10 9 8 7 5 4 3 0 -2 -3 -3 -4 -5 -6 -7 -13 -15 -16 -18 -14 -12 -15 -17 -22 -19 -21 -22 -22 -22 -19 -19 -18 -16
6 7 7 8 10 10 10 8 8 8 6 5 4 4 3 2 1 -1 -2 -3 -4 -9 -7 -9 -11 -14 -17 -21 -24 -26 -25 -24 -26 -23 -21 -21 -23 -22 -22 -22 -20 -19 -16
5 6 6 7 7 7 6 6 5 4 4 4 3 2 1 1 -1 -4 -6 -5 -7 -8 -12 -14 -17 -18 -19 -21 -22 -24 -23 -15 -25 -24 -28 -23 -23 -25 -25 -23 -23 -21 -18
4 4 4 4 4 4 4 3 3 3 2 2 1 -0 -1 -2 -3 -4 -6 -7 -6 -12 -16 -19 -19 -19 -21 -21 -22 -17 -13 -4 -14 -15 -23 -21 -22 -26 -26 -24 -25 -21 -20
MSLP
1019.17 1018.92 1018.72 1018.63 1018.49 1018.39 1018.43 1018.39 1018.24 1018.12 1017.82 1017.65 1017.68 1017.65 1017.49 1017.48 1017.52 1017.59 1017.47 1017.46 1017.42 1017.49 1017.62 1017.69 1017.68 1017.98 1017.98 1018.21 1018.38 1018.59 1018.74 1019.07 1018.44 1017.82 1018.67 1019.09 1019.54 1019.84 1020.36 1020.77 1021.36 1021.65 1021.92
1020.00 1019.63 1019.35 1018.97 1018.68 1018.46 1018.47 1018.36 1018.25 1017.82 1017.42 1017.27 1017.17 1017.19 1017.09 1016.95 1016.87 1016.90 1016.90 1016.88 1016.79 1016.77 1016.77 1016.86 1016.88 1017.13 1017.08 1017.23 1017.39 1017.63 1017.76 1017.85 1017.95 1017.37 1017.98 1018.92 1019.10 1019.44 1019.60 1020.13 1020.66 1020.99 1021.42
1020.49 1020.10 1019.68 1019.42 1019.19 1018.83 1018.73 1018.46 1018.08 1017.61 1017.12 1016.83 1016.79 1016.76 1016.62 1016.45 1016.44 1016.33 1016.06 1015.86 1015.71 1015.55 1015.61 1015.77 1015.80 1016.18 1016.18 1016.42 1016.54 1016.45 1016.69 1016.79 1016.88 1017.05 1017.35 1018.37 1018.60 1019.00 1019.28 1019.80 1020.13 1020.57 1021.12
1021.62 1021.29 1021.00 1020.49 1020.02 1019.61 1019.22 1018.68 1018.12 1017.71 1017.33 1016.94 1016.66 1016.43 1016.24 1016.04 1015.99 1015.84 1015.72 1015.57 1015.29 1015.15 1015.11 1014.95 1014.99 1015.08 1015.04 1015.28 1015.66 1015.65 1015.68 1015.69 1015.96 1016.34 1016.84 1017.50 1017.80 1018.18 1018.55 1019.23 1019.86 1020.34 1020.77
1021.98 1021.70 1021.50 1021.04 1020.50 1020.02 1019.51 1018.95 1018.31 1017.70 1017.19 1016.78 1016.40 1016.02 1015.89 1015.71 1015.48 1015.31 1015.07 1014.88 1014.75 1014.61 1014.54 1014.45 1014.46 1014.45 1014.51 1014.41 1014.47 1014.60 1014.88 1015.31 1015.48 1015.62 1016.00 1016.68 1017.04 1017.58 1017.57 1018.25 1018.96 1019.82 1020.60
1021.39 1021.27 1021.05 1020.81 1020.45 1020.04 1019.50 1018.90 1018.39 1017.81 1017.32 1016.82 1016.21 1015.74 1015.32 1015.04 1014.87 1014.73 1014.52 1014.31 1014.25 1014.15 1013.99 1013.92 1013.90 1014.03 1013.97 1013.96 1013.80 1013.78 1013.80 1014.04 1014.50 1014.77 1014.90 1015.02 1015.53 1016.19 1016.94 1017.56 1018.56 1019.30 1020.32
1021.52 1021.29 1021.05 1020.78 1020.43 1019.87 1019.45 1019.01 1018.49 1018.00 1017.53 1016.98 1016.33 1015.61 1015.11 1014.76 1014.41 1014.19 1014.12 1013.87 1013.82 1013.65 1013.71 1013.63 1013.56 1013.52 1013.44 1013.53 1013.29 1013.34 1013.28 1013.30 1013.12 1013.61 1013.93 1014.34 1014.90 1015.32 1016.09 1016.93 1017.69 1018.16 1018.84
1021.48 1021.28 1021.03 1020.86 1020.54 1020.10 1019.68 1019.27 1018.68 1018.18 1017.75 1017.31 1016.70 1016.09 1015.47 1014.58 1013.95 1013.89 1013.79 1013.62 1013.46 1013.37 1013.30 1013.22 1013.04 1012.90 1012.92 1012.96 1012.92 1013.07 1012.96 1012.94 1012.95 1013.22 1013.75 1014.09 1014.50 1015.01 1015.30 1016.17 1017.16 1018.16 1018.95
1021.86 1021.54 1021.33 1021.13 1020.69 1020.30 1019.79 1019.28 1018.67 1017.98 1017.53 1016.96 1016.58 1015.90 1015.37 1014.75 1014.02 1013.53 1013.39 1013.55 1013.27 1012.98 1012.75 1012.71 1012.61 1012.42 1012.46 1012.63 1012.71 1012.48 1012.78 1013.03 1012.89 1012.98 1013.40 1013.92 1014.49 1015.05 1015.59 1016.38 1016.89 1018.15 1019.06
1022.18 1021.89 1021.70 1021.40 1020.93 1020.29 1019.71 1019.14 1018.56 1018.14 1017.38 1016.86 1016.24 1015.71 1015.23 1014.66 1014.11 1013.60 1013.21 1013.12 1013.07 1012.73 1012.65 1012.66 1012.52 1012.44 1012.33 1011.95 1011.70 1012.17 1012.61 1012.92 1013.21 1013.73 1013.96 1014.28 1014.51 1015.27 1015.67 1016.09 1016.61 1017.56 1018.52
1022.38 1022.08 1021.64 1021.20 1020.77 1020.26 1019.69 1019.15 1018.46 1017.81 1017.17 1016.69 1016.07 1015.60 1015.09 1014.58 1013.96 1013.31 1013.11 1012.88 1012.91 1012.55 1012.69 1012.58 1012.45 1012.33 1011.87 1011.94 1011.91 1011.75 1012.33 1012.85 1013.18 1013.69 1014.22 1014.82 1015.13 1015.54 1015.95 1016.71 1016.95 1017.50 1018.31
1022.20 1021.66 1021.12 1020.89 1020.19 1019.78 1019.44 1018.83 1018.16 1017.45 1016.96 1016.44 1015.83 1015.29 1014.63 1014.20 1013.76 1013.21 1012.65 1012.68 1012.70 1012.44 1012.54 1012.51 1012.12 1012.16 1011.83 1011.50 1011.76 1011.99 1012.24 1012.83 1013.38 1013.79 1014.52 1015.05 1015.34 1015.78 1016.46 1016.91 1017.31 1017.86 1018.24
1022.22 1021.50 1020.83 1020.35 1019.81 1019.23 1018.80 1018.51 1018.08 1017.54 1017.02 1016.28 1015.77 1015.14 1014.63 1014.13 1013.81 1013.32 1012.86 1012.31 1012.35 1012.52 1012.85 1012.57 1012.05 1011.97 1011.77 1011.51 1011.73 1012.21 1012.45 1013.09 1013.27 1014.10 1014.60 1015.23 1015.54 1016.20 1016.78 1017.46 1018.17 1018.73 1019.22
1022.39 1021.59 1020.66 1019.90 1019.16 1018.69 1018.29 1017.99 1017.62 1017.28 1016.87 1016.28 1015.90 1015.44 1014.92 1014.47 1013.99 1013.30 1012.76 1012.48 1012.41 1012.86 1012.68 1012.42 1012.39 1012.13 1011.94 1012.25 1012.03 1012.33 1012.88 1013.22 1013.40 1014.23 1014.80 1015.52 1015.94 1016.60 1017.29 1017.91 1018.74 1019.39 1020.13
1022.47 1021.62 1020.62 1019.70 1018.90 1018.07 1017.76 1017.32 1017.12 1016.73 1016.39 1015.90 1015.51 1015.27 1015.00 1014.53 1013.90 1013.38 1012.98 1012.98 1013.00 1012.84 1012.80 1012.50 1012.67 1012.74 1012.68 1012.79 1012.96 1013.16 1013.10 1013.65 1014.12 1014.56 1015.20 1015.84 1016.38 1016.94 1017.63 1018.27 1018.87 1019.57 1020.13
1022.55 1021.60 1020.73 1019.83 1019.10 1018.17 1017.56 1017.06 1016.77 1016.38 1016.05 1015.47 1015.08 1014.81 1014.61 1014.24 1013.63 1013.24 1013.18 1013.12 1013.06 1013.18 1013.10 1013.18 1013.39 1013.66 1013.90 1013.96 1013.94 1014.26 1014.11 1014.33 1015.10 1015.39 1015.76 1016.24 1016.69 1017.39 1018.00 1018.73 1019.25 1019.89 1020.41
1022.69 1021.68 1020.68 1019.80 1018.79 1018.08 1017.62 1017.25 1017.04 1016.39 1016.14 1015.83 1015.43 1014.82 1014.38 1014.00 1013.67 1013.43 1013.31 1013.40 1013.53 1013.46 1013.90 1013.94 1014.19 1014.68 1015.00 1015.05 1015.18 1015.44 1015.69 1015.91 1015.94 1016.34 1016.49 1016.94 1017.24 1017.94 1018.54 1019.14 1019.67 1020.13 1020.63
1022.41 1021.48 1020.47 1019.45 1018.54 1017.74 1017.27 1017.03 1016.94 1016.90 1016.77 1016.32 1016.01 1015.92 1015.10 1014.46 1013.98 1013.75 1013.81 1013.94 1014.54 1014.99 1015.28 1015.51 1015.83 1016.05 1016.13 1016.36 1016.52 1016.67 1017.01 1016.94 1017.30 1017.67 1017.94 1018.15 1018.32 1018.64 1019.23 1019.76 1020.26 1020.65 1021.05
1021.88 1020.87 1019.84 1018.90 1018.05 1017.31 1016.86 1016.83 1016.92 1016.96 1017.06 1016.96 1016.58 1016.31 1016.32 1015.81 1015.42 1015.14 1014.97 1015.47 1016.16 1016.70 1016.99 1017.21 1017.44 1017.52 1017.70 1017.94 1018.13 1018.25 1018.24 1018.64 1018.81 1019.00 1019.35 1019.37 1019.51 1019.80 1020.24 1020.58 1020.98 1021.36 1021.68
1020.96 1020.05 1019.13 1018.34 1017.58 1016.94 1016.66 1016.76 1016.98 1017.16 1017.36 1017.30 1017.24 1017.08 1016.95 1016.75 1016.87 1017.21 1017.39 1017.48 1017.78 1018.19 1018.54 1018.78 1019.16 1019.28 1019.25 1019.29 1019.33 1019.42 1019.59 1019.91 1020.19 1020.26 1020.47 1020.53 1020.73 1020.90 1021.23 1021.56 1022.08 1022.44 1022.71
1020.53 1019.66 1018.86 1018.07 1017.35 1016.85 1016.68 1016.81 1017.07 1017.32 1017.67 1017.73 1017.87 1017.56 1017.72 1017.96 1018.52 1018.90 1019.16 1019.47 1019.57 1019.72 1019.83 1020.00 1020.25 1020.41 1020.58 1020.58 1020.55 1020.62 1020.81 1021.05 1021.30 1021.38 1021.45 1021.64 1021.74 1022.32 1022.39 1022.49 1023.10 1023.44 1023.33
1020.16 1019.45 1018.72 1018.09 1017.48 1017.08 1016.90 1017.01 1017.34 1017.70 1018.13 1018.45 1018.84 1018.92 1018.98 1019.28 1019.73 1020.18 1020.48 1020.73 1020.90 1021.02 1021.07 1020.95 1021.18 1021.50 1021.63 1021.61 1021.69 1021.49 1021.73 1021.96 1022.04 1022.18 1022.35 1022.56 1022.72 1022.92 1023.12 1023.52 1023.80 1023.97 1023.92
1019.83 1019.26 1018.76 1018.29 1017.83 1017.56 1017.56 1017.69 1018.01 1018.33 1018.76 1019.17 1019.45 1019.74 1020.07 1020.36 1020.70 1021.15 1021.47 1021.56 1021.59 1021.60 1021.61 1021.52 1021.57 1022.01 1022.19 1022.25 1022.36 1022.24 1022.16 1022.44 1022.60 1022.92 1022.90 1023.07 1023.30 1023.47 1023.71 1024.32 1024.48 1024.44 1024.36
1019.80 1019.45 1019.11 1018.72 1018.32 1018.12 1018.27 1018.65 1018.92 1019.22 1019.59 1019.93 1020.14 1020.41 1020.70 1020.98 1021.20 1021.54 1021.80 1021.92 1022.02 1022.16 1021.96 1021.89 1021.98 1022.18 1022.34 1022.46 1022.51 1022.55 1022.59 1022.61 1022.69 1022.84 1022.94 1023.30 1023.59 1023.89 1024.03 1024.22 1024.35 1024.45 1024.52
1020.20 1019.92 1019.59 1019.36 1019.14 1018.98 1019.17 1019.54 1019.71 1020.03 1020.27 1020.54 1020.84 1021.09 1021.27 1021.42 1021.64 1021.88 1022.02 1022.04 1022.05 1022.03 1022.20 1022.25 1022.29 1022.28 1022.33 1022.34 1022.38 1022.36 1022.32 1022.33 1022.49 1022.60 1022.87 1023.12 1023.62 1023.70 1023.83 1023.99 1024.17 1024.29 1024.34
1020.88 1020.65 1020.38 1020.30 1020.16 1019.93 1020.12 1020.33 1020.45 1020.63 1020.82 1021.07 1021.33 1021.47 1021.61 1021.72 1021.86 1022.00 1022.11 1022.15 1022.18 1022.28 1022.35 1022.33 1022.19 1022.10 1022.09 1022.04 1021.97 1021.88 1021.85 1021.76 1021.91 1022.00 1022.30 1022.69 1023.29 1023.33 1023.48 1023.66 1023.94 1024.12 1024.26
Wind_Speed
10 7 7 6 6 5 5 6 6 6 6 6 7 7 8 8 8 11 12 11 10 9 10 11 14 13 11 10 9 9 11 10 15 11 2 4 8 10 9 11 11 12 13
8 7 6 6 6 6 5 6 6 7 5 6 6 7 7 8 8 10 11 11 13 14 14 13 14 9 13 12 9 12 12 11 11 18 4 4 6 10 10 12 10 9 9
11 12 12 11 10 9 8 8 7 7 6 6 6 7 8 9 9 11 13 13 13 14 14 12 14 11 11 10 11 10 10 10 10 10 7 2 2 6 6 7 9 9 8
7 7 7 10 10 10 9 8 8 7 7 7 6 7 7 7 8 10 9 13 13 12 12 12 11 12 13 12 12 13 11 9 9 8 4 3 3 4 7 8 7 5 7
4 4 5 5 6 7 7 8 8 8 7 7 7 6 6 6 7 9 9 11 12 12 9 8 8 10 13 15 9 10 9 8 6 8 7 4 4 4 11 6 7 5 5
7 7 6 6 7 7 8 9 8 7 7 7 7 7 7 5 11 16 13 9 9 9 10 7 7 8 10 14 16 18 14 11 11 8 9 8 10 6 7 8 6 7 5
6 6 6 6 7 8 9 9 10 11 9 9 8 6 6 6 14 15 14 8 7 7 7 6 6 5 7 9 13 17 17 21 19 10 10 9 7 9 9 10 8 6 3
6 5 5 7 7 7 7 8 8 6 8 9 9 9 7 6 12 13 12 6 6 7 7 8 8 7 7 7 7 7 8 8 9 6 5 4 5 9 11 7 8 5 6
8 9 8 8 9 9 8 11 10 8 5 5 6 8 7 7 12 10 9 5 6 7 6 6 7 7 9 12 7 6 3 1 5 10 10 12 13 16 12 8 8 7 2
6 9 8 8 8 9 9 11 7 6 9 7 8 6 7 7 12 12 10 4 6 5 2 4 9 8 11 12 6 6 5 5 6 5 6 9 12 12 16 6 7 7 4
7 7 7 6 7 7 7 6 7 7 7 5 7 6 6 5 7 12 13 5 5 3 2 3 3 10 11 10 8 6 4 7 10 6 5 5 5 5 5 4 5 6 4
6 10 11 8 8 6 6 7 8 9 8 8 7 6 4 4 8 9 10 11 7 2 2 2 3 10 10 8 6 8 11 9 6 6 5 5 5 5 4 4 4 4 3
7 8 10 11 10 9 8 8 7 5 7 7 6 6 6 4 4 10 11 8 6 1 2 5 7 8 7 3 10 8 10 5 7 5 5 2 3 4 5 5 7 8 8
7 8 8 9 10 8 6 4 4 4 5 5 5 6 5 4 4 4 3 3 5 3 4 3 4 3 0 5 5 7 4 4 6 5 4 3 4 3 2 2 2 2 3
6 7 8 8 10 8 6 5 5 5 5 4 5 4 4 4 3 8 3 2 1 2 2 3 2 2 3 4 4 4 5 5 4 3 3 3 3 3 2 3 2 2 2
8 6 6 7 8 8 7 5 5 6 11 11 10 6 3 8 7 1 5 5 6 5 3 3 4 5 4 3 4 4 5 5 3 3 3 3 3 3 3 2 2 1 2
7 8 7 8 8 8 6 3 4 4 2 9 16 15 4 3 1 3 6 6 8 6 3 4 4 4 4 5 5 5 4 4 3 3 3 3 4 4 3 2 2 2 2
7 10 8 7 8 7 5 4 2 1 2 3 7 12 16 13 10 6 11 9 6 8 5 6 6 6 6 6 5 4 4 5 5 5 5 4 4 3 2 2 2 2 2
7 7 7 7 7 7 3 3 1 2 1 2 3 3 8 10 15 17 18 6 5 5 5 6 5 5 5 5 5 5 6 5 4 4 3 4 4 2 2 3 3 3 4
6 10 9 7 7 5 2 3 3 2 1 2 3 3 4 4 5 6 7 6 6 6 5 6 5 5 5 5 4 4 4 4 4 4 4 4 4 3 3 3 3 2 1
6 7 8 7 4 3 3 3 3 3 3 3 3 5 11 5 5 5 5 6 5 5 4 4 4 4 4 3 3 4 4 4 3 3 3 3 3 3 2 3 3 3 3
6 6 5 4 3 2 1 3 3 4 4 4 3 6 12 6 5 5 5 4 3 3 3 3 3 3 3 3 2 3 4 3 2 3 3 3 3 3 2 2 2 2 2
5 4 3 2 1 2 3 4 4 4 4 4 4 4 4 4 4 4 3 2 2 2 2 3 3 2 2 2 2 2 3 2 2 3 4 3 2 3 2 2 2 1 1
4 3 2 2 2 3 4 4 5 6 5 4 4 3 3 3 3 3 2 2 2 1 2 2 2 2 1 1 1 1 1 2 2 3 5 4 3 3 2 2 1 1 2
3 3 3 3 3 4 4 4 4 4 3 3 3 2 2 2 2 1 1 1 1 2 2 2 0 0 0 0 1 2 2 2 4 4 3 4 5 5 3 2 2 1 1
5 5 4 4 4 4 4 3 3 3 3 2 1 1 0 0 1 1 1 2 2 2 3 2 2 3 3 3 4 4 4 5 5 7 5 4 4 3 2 3 3 2 3
Wind_Direction
12 2 7 357 350 343 325 302 278 274 250 239 235 238 236 235 233 242 245 249 236 224 218 219 228 225 231 229 223 216 227 225 251 258 187 175 193 200 198 201 205 200 201
355 357 2 358 353 353 332 313 288 275 276 259 251 241 238 232 226 228 237 239 243 246 245 236 240 233 233 232 226 222 227 224 236 258 218 181 195 203 192 194 196 197 190
0 0 359 360 354 352 336 325 319 311 293 281 257 248 245 239 240 240 243 243 241 240 240 229 235 227 234 234 234 230 222 227 226 243 247 161 165 181 182 189 195 193 188
341 347 350 349 345 340 329 327 326 318 306 302 280 263 252 246 248 253 253 258 256 250 247 238 229 224 232 233 233 237 229 220 215 225 211 177 170 177 181 181 186 184 178
329 344 340 314 310 311 322 323 321 321 311 296 293 283 267 252 252 249 243 243 249 251 244 238 236 235 235 237 238 235 216 219 209 215 214 179 173 169 191 176 184 162 164
355 350 340 342 335 331 328 327 318 314 314 312 305 289 287 262 258 260 254 248 241 246 252 244 235 239 251 251 249 241 209 208 215 215 224 217 208 186 171 170 161 154 176
337 332 332 332 332 333 328 329 333 331 326 320 310 302 293 288 290 280 265 253 243 243 246 245 244 232 237 251 257 255 239 227 224 215 226 210 187 179 160 163 168 164 145
329 327 329 332 323 318 320 319 321 316 321 316 314 311 306 294 305 297 280 261 249 245 243 247 249 252 232 238 244 248 244 228 236 232 210 190 184 168 168 161 149 120 92
334 335 335 332 327 325 321 325 317 299 299 290 292 299 297 293 310 311 298 271 262 254 247 241 244 247 237 250 241 240 200 127 139 150 150 152 158 158 143 131 144 150 97
325 319 315 311 307 313 313 320 307 290 297 302 302 293 292 300 313 316 310 271 270 265 245 260 259 255 254 248 225 187 175 162 134 119 134 147 147 158 159 156 145 155 113
309 303 298 296 296 288 301 300 301 295 293 290 292 292 284 295 305 317 312 294 262 258 254 266 252 272 266 269 234 170 173 143 143 123 108 103 107 121 111 109 126 146 123
307 314 316 312 317 310 308 313 306 307 302 303 304 302 284 291 304 309 310 300 271 216 252 259 279 279 269 256 175 167 156 134 123 119 120 120 120 115 104 103 105 86 84
318 311 316 315 313 314 310 313 312 303 300 304 301 303 302 300 293 312 309 304 138 66 297 293 295 296 289 228 143 173 134 134 122 125 127 113 93 98 98 77 67 75 60
301 294 299 300 303 298 292 273 287 290 293 292 297 299 298 306 304 305 307 71 88 23 353 351 326 332 210 117 125 121 126 134 127 123 104 90 95 94 86 92 95 99 88
291 294 299 298 302 299 282 288 291 260 251 267 276 266 284 300 279 307 100 78 63 53 21 28 21 18 81 93 80 91 101 96 99 93 105 105 100 108 109 115 109 133 132
310 304 302 303 298 292 288 297 289 17 15 346 303 279 260 261 297 329 100 97 91 54 43 69 62 49 48 55 75 64 50 71 51 85 102 122 133 136 124 104 100 106 109
290 297 291 286 288 289 283 258 265 309 332 25 18 4 290 270 253 135 116 104 81 68 44 57 60 58 52 50 52 41 59 37 45 60 79 94 105 99 112 121 116 125 113
278 273 273 276 280 280 257 243 224 224 303 326 1 4 18 47 55 83 100 74 45 32 41 50 49 41 43 46 45 50 55 51 51 52 55 55 64 94 87 99 120 122 106
286 281 277 278 275 269 231 186 162 98 35 337 340 358 2 26 57 55 58 65 76 58 47 53 43 46 47 45 41 45 49 46 45 52 45 60 53 69 70 77 89 89 107
280 276 283 286 288 272 192 151 131 124 98 43 16 343 338 19 39 40 40 51 62 60 52 56 43 41 47 45 44 42 56 46 44 55 54 52 48 43 69 77 68 102 89
292 293 286 286 270 240 174 163 145 114 110 74 27 41 62 71 63 54 52 43 47 50 55 60 52 51 40 44 53 61 68 65 52 59 60 52 45 79 49 69 108 110 133
287 289 291 287 293 286 104 115 108 107 97 86 56 36 61 58 62 64 62 59 54 54 41 79 85 71 53 54 47 75 75 81 73 77 80 82 93 96 102 90 90 105 118
296 297 299 309 342 65 62 64 83 92 91 83 82 78 63 70 77 73 74 62 59 70 54 68 97 85 53 57 46 84 107 111 149 139 116 104 88 84 91 120 137 101 115
315 322 335 349 33 71 76 76 77 74 81 80 77 76 83 78 81 87 79 61 67 39 52 63 72 85 75 46 41 68 119 141 145 151 137 129 128 127 113 106 146 150 145
351 357 22 28 45 68 78 75 81 80 82 79 79 81 77 83 85 68 29 1 20 17 4 1 24 80 162 293 294 277 244 81 169 166 137 126 147 159 154 148 149 144 133
16 20 28 29 37 53 65 79 78 75 78 80 73 69 54 338 288 303 317 320 327 311 298 291 301 304 298 276 270 267 258 246 210 192 171 153 152 164 153 160 152 161 171